Location: *
(43.9900°N, 3.4811°E)
Time: 19:11:32
(UTC+00:00)

Cosmos 1666 - Pass Details

Date: 25 August 2019
Orbit: 497 x 523 km, 82.5° (Epoch: 17 September)

Event Time Altitude Azimuth Distance (km) Brightness Sun altitude
Exits shadow 19:40:45 15° 89° (E) 1,462 4.5 -11.8°
Maximum altitude 19:40:55 15° 86° (E) 1,460 4.5 -11.9°
Drops below altitude 10° 19:43:07 10° 51° (NE) 1,747 5.2 -12.2°
Sets 19:45:58 0° 28° (NNE) 2,634 6.3 -12.7°
